Location: Newark
(45.8378°N, 5.5389°E)
Time: 11:03:14
(UTC+00:00)

YUBILEINY - Pass Details

Date: 23 December 2019
Orbit: 1478 x 1509 km, 82.5° (Epoch: 18 January)

Event Time Altitude Azimuth Distance (km) Brightness Sun altitude
Rises 19:38:02 0° 185° (S) 4,601 ? -37.4°
Reaches altitude 10° 19:40:53 10° 185° (S) 3,621 ? -37.9°
Enters shadow 19:43:27 22° 185° (S) 2,777 ? -38.3°
Exits shadow 19:59:15 - 10° (N) 3,932 ? -41.1°
Sets 20:01:14 0° 10° (N) 4,610 ? -41.4°
